Time,TemperatureF,DewpointF,PressureIn,WindDirection,WindDirectionDegrees,WindSpeedMPH,WindSpeedGustMPH,Humidity,HourlyPrecipIn,Conditions,Clouds,dailyrainin,SoftwareType,DateUTC
2014-03-15 00:08:00,35.4,25.0,29.73,WSW,240,9.0,10.0,67,0.00,,,0.00,weatherlink.com 1.10,2014-03-15 06:08:00,
2014-03-15 00:24:00,33.6,25.0,29.73,West,262,7.0,7.0,71,0.00,,,0.00,weatherlink.com 1.10,2014-03-15 06:24:00,
2014-03-15 00:39:00,33.6,25.0,29.72,West,259,7.0,9.0,71,0.00,,,0.00,weatherlink.com 1.10,2014-03-15 06:39:00,
2014-03-15 00:54:00,32.4,25.0,29.72,WNW,285,5.0,8.0,75,0.00,,,0.00,weatherlink.com 1.10,2014-03-15 06:54:00,
2014-03-15 01:09:00,32.2,25.0,29.71,WNW,297,9.0,10.0,75,0.00,,,0.00,weatherlink.com 1.10,2014-03-15 07:09:00,
2014-03-15 01:24:00,35.3,25.0,29.71,West,271,8.0,13.0,66,0.00,,,0.00,weatherlink.com 1.10,2014-03-15 07:24:00,
2014-03-15 01:39:00,37.5,24.0,29.70,WNW,289,13.0,15.0,59,0.00,,,0.00,weatherlink.com 1.10,2014-03-15 07:39:00,
2014-03-15 01:54:00,39.4,24.0,29.70,West,276,8.0,13.0,55,0.00,,,0.00,weatherlink.com 1.10,2014-03-15 07:54:00,
2014-03-15 02:09:00,39.9,25.0,29.70,WNW,285,11.0,13.0,55,0.00,,,0.00,weatherlink.com 1.10,2014-03-15 08:09:00,
2014-03-15 02:24:00,40.6,25.0,29.69,West,261,13.0,15.0,55,0.00,,,0.00,weatherlink.com 1.10,2014-03-15 08:24:00,
2014-03-15 02:39:00,40.1,26.0,29.69,West,279,8.0,15.0,57,0.00,,,0.00,weatherlink.com 1.10,2014-03-15 08:39:00,
2014-03-15 02:54:00,39.5,26.0,29.69,WNW,299,10.0,15.0,58,0.00,,,0.00,weatherlink.com 1.10,2014-03-15 08:54:00,
2014-03-15 03:09:00,38.2,26.0,29.68,WSW,241,6.0,11.0,62,0.00,,,0.00,weatherlink.com 1.10,2014-03-15 09:09:00,
2014-03-15 03:24:00,40.4,26.0,29.68,WNW,297,14.0,20.0,58,0.00,,,0.00,weatherlink.com 1.10,2014-03-15 09:24:00,
2014-03-15 03:39:00,41.5,27.0,29.67,WNW,285,12.0,20.0,56,0.00,,,0.00,weatherlink.com 1.10,2014-03-15 09:39:00,
2014-03-15 03:54:00,40.9,27.0,29.68,West,274,7.0,16.0,57,0.00,,,0.00,weatherlink.com 1.10,2014-03-15 09:54:00,
2014-03-15 04:09:00,39.3,27.0,29.68,WNW,294,9.0,15.0,61,0.00,,,0.00,weatherlink.com 1.10,2014-03-15 10:09:00,
2014-03-15 04:24:00,38.7,27.0,29.68,WNW,299,11.0,15.0,63,0.00,,,0.00,weatherlink.com 1.10,2014-03-15 10:24:00,
2014-03-15 04:39:00,38.2,27.0,29.68,WNW,300,11.0,15.0,64,0.00,,,0.00,weatherlink.com 1.10,2014-03-15 10:39:00,
2014-03-15 04:54:00,37.5,27.0,29.68,NW,317,8.0,14.0,66,0.00,,,0.00,weatherlink.com 1.10,2014-03-15 10:54:00,
2014-03-15 05:09:00,37.9,28.0,29.68,NW,312,10.0,13.0,67,0.00,,,0.00,weatherlink.com 1.10,2014-03-15 11:09:00,
2014-03-15 05:24:00,40.1,28.0,29.68,WNW,302,13.0,23.0,63,0.00,,,0.00,weatherlink.com 1.10,2014-03-15 11:24:00,
2014-03-15 05:39:00,41.1,28.0,29.69,WNW,299,22.0,27.0,61,0.00,,,0.00,weatherlink.com 1.10,2014-03-15 11:39:00,
2014-03-15 05:54:00,40.9,29.0,29.70,NW,306,21.0,27.0,63,0.00,,,0.00,weatherlink.com 1.10,2014-03-15 11:54:00,
2014-03-15 06:09:00,40.7,30.0,29.70,NW,321,22.0,27.0,65,0.00,,,0.00,weatherlink.com 1.10,2014-03-15 12:09:00,
2014-03-15 06:24:00,40.1,30.0,29.70,NW,304,18.0,27.0,67,0.00,,,0.00,weatherlink.com 1.10,2014-03-15 12:24:00,
2014-03-15 06:39:00,39.7,31.0,29.71,NW,317,16.0,23.0,70,0.00,,,0.00,weatherlink.com 1.10,2014-03-15 12:39:00,
2014-03-15 06:54:00,39.8,31.0,29.71,NW,312,16.0,21.0,70,0.00,,,0.00,weatherlink.com 1.10,2014-03-15 12:54:00,
2014-03-15 07:09:00,40.2,31.0,29.71,NW,322,17.0,24.0,70,0.00,,,0.00,weatherlink.com 1.10,2014-03-15 13:09:00,
2014-03-15 07:24:00,40.3,31.0,29.72,NW,307,15.0,20.0,70,0.00,,,0.00,weatherlink.com 1.10,2014-03-15 13:24:00,
2014-03-15 07:39:00,40.8,31.0,29.73,NW,317,14.0,22.0,69,0.00,,,0.00,weatherlink.com 1.10,2014-03-15 13:39:00,
2014-03-15 07:54:00,41.7,32.0,29.74,NW,314,11.0,19.0,69,0.00,,,0.00,weatherlink.com 1.10,2014-03-15 13:54:00,
2014-03-15 08:09:00,43.1,32.0,29.75,NW,323,15.0,26.0,65,0.00,,,0.00,weatherlink.com 1.10,2014-03-15 14:09:00,
2014-03-15 08:24:00,42.4,31.0,29.75,NW,324,15.0,24.0,64,0.00,,,0.00,weatherlink.com 1.10,2014-03-15 14:24:00,
2014-03-15 08:40:00,42.1,26.0,29.76,NNW,339,20.0,30.0,54,0.00,,,0.00,weatherlink.com 1.10,2014-03-15 14:40:00,
2014-03-15 08:55:00,42.4,26.0,29.77,NNW,344,16.0,25.0,52,0.00,,,0.00,weatherlink.com 1.10,2014-03-15 14:55:00,
2014-03-15 09:10:00,42.6,27.0,29.78,NNW,337,11.0,25.0,54,0.00,,,0.00,weatherlink.com 1.10,2014-03-15 15:10:00,
2014-03-15 09:25:00,42.1,29.0,29.79,North,350,21.0,27.0,59,0.00,,,0.00,weatherlink.com 1.10,2014-03-15 15:25:00,
2014-03-15 09:40:00,41.6,32.0,29.80,NNW,333,14.0,28.0,68,0.00,,,0.00,weatherlink.com 1.10,2014-03-15 15:40:00,
2014-03-15 10:10:00,41.6,34.0,29.82,NNW,328,35.0,35.0,74,0.00,,,0.00,weatherlink.com 1.10,2014-03-15 16:10:00,
2014-03-15 10:25:00,39.3,33.0,29.84,NNW,335,23.0,30.0,78,0.00,,,0.00,weatherlink.com 1.10,2014-03-15 16:25:00,
2014-03-15 10:40:00,38.3,32.0,29.85,NNW,334,21.0,31.0,79,0.00,,,0.00,weatherlink.com 1.10,2014-03-15 16:40:00,
2014-03-15 10:55:00,36.9,33.0,29.87,North,359,21.0,43.0,84,0.00,,,0.00,weatherlink.com 1.10,2014-03-15 16:55:00,
2014-03-15 11:10:00,35.0,33.0,29.88,NNW,340,13.0,30.0,91,0.00,,,0.00,weatherlink.com 1.10,2014-03-15 17:10:00,
2014-03-15 11:25:00,33.3,32.0,29.89,NW,322,28.0,30.0,93,0.00,,,0.00,weatherlink.com 1.10,2014-03-15 17:25:00,
2014-03-15 11:40:00,32.7,32.0,29.89,North,360,15.0,36.0,95,0.00,,,0.00,weatherlink.com 1.10,2014-03-15 17:40:00,
2014-03-15 11:55:00,32.8,32.0,29.90,NNW,329,16.0,27.0,95,0.00,,,0.00,weatherlink.com 1.10,2014-03-15 17:55:00,
2014-03-15 12:10:00,32.9,32.0,29.91,NNW,327,22.0,28.0,96,0.00,,,0.00,weatherlink.com 1.10,2014-03-15 18:10:00,
2014-03-15 12:26:00,32.9,32.0,29.91,NW,324,20.0,29.0,96,0.00,,,0.00,weatherlink.com 1.10,2014-03-15 18:26:00,
2014-03-15 12:40:00,32.6,32.0,29.92,NNW,342,14.0,28.0,96,0.00,,,0.00,weatherlink.com 1.10,2014-03-15 18:40:00,
2014-03-15 12:55:00,32.8,32.0,29.92,NNW,334,17.0,27.0,96,0.00,,,0.00,weatherlink.com 1.10,2014-03-15 18:55:00,
2014-03-15 13:10:00,32.9,32.0,29.93,NNW,344,21.0,28.0,96,0.00,,,0.00,weatherlink.com 1.10,2014-03-15 19:10:00,
2014-03-15 13:25:00,32.8,32.0,29.94,NNW,334,22.0,28.0,96,0.00,,,0.00,weatherlink.com 1.10,2014-03-15 19:25:00,
2014-03-15 13:40:00,32.5,32.0,29.94,NW,323,18.0,26.0,96,0.00,,,0.00,weatherlink.com 1.10,2014-03-15 19:40:00,
2014-03-15 13:55:00,32.3,31.0,29.95,NNW,333,18.0,32.0,96,0.00,,,0.00,weatherlink.com 1.10,2014-03-15 19:55:00,
2014-03-15 14:10:00,32.0,31.0,29.96,NNW,342,20.0,24.0,96,0.00,,,0.00,weatherlink.com 1.10,2014-03-15 20:10:00,
2014-03-15 14:25:00,32.1,31.0,29.96,NNW,335,12.0,24.0,96,0.01,,,0.01,weatherlink.com 1.10,2014-03-15 20:25:00,
2014-03-15 14:40:00,32.0,31.0,29.97,North,352,14.0,25.0,97,0.01,,,0.01,weatherlink.com 1.10,2014-03-15 20:40:00,
2014-03-15 14:56:00,32.1,31.0,29.98,NNW,347,16.0,23.0,97,0.01,,,0.01,weatherlink.com 1.10,2014-03-15 20:56:00,
2014-03-15 15:11:00,32.2,32.0,30.00,NNW,342,16.0,21.0,97,0.01,,,0.01,weatherlink.com 1.10,2014-03-15 21:11:00,
2014-03-15 15:26:00,32.4,32.0,30.01,NW,306,11.0,18.0,97,0.00,,,0.01,weatherlink.com 1.10,2014-03-15 21:26:00,
2014-03-15 15:41:00,32.7,32.0,30.01,North,4,13.0,22.0,97,0.01,,,0.02,weatherlink.com 1.10,2014-03-15 21:41:00,
2014-03-15 15:56:00,32.9,32.0,30.02,NNW,333,16.0,33.0,97,0.02,,,0.03,weatherlink.com 1.10,2014-03-15 21:56:00,
2014-03-15 16:11:00,33.0,32.0,30.03,NNW,333,22.0,25.0,97,0.02,,,0.03,weatherlink.com 1.10,2014-03-15 22:11:00,
2014-03-15 16:26:00,33.2,33.0,30.04,NW,326,29.0,29.0,97,0.02,,,0.03,weatherlink.com 1.10,2014-03-15 22:26:00,
2014-03-15 16:41:00,33.1,32.0,30.05,NNW,340,19.0,26.0,97,0.02,,,0.04,weatherlink.com 1.10,2014-03-15 22:41:00,
2014-03-15 16:56:00,33.4,33.0,30.05,NNW,333,17.0,25.0,97,0.01,,,0.04,weatherlink.com 1.10,2014-03-15 22:56:00,
2014-03-15 17:12:00,33.6,33.0,30.07,NNW,342,18.0,21.0,97,0.02,,,0.05,weatherlink.com 1.10,2014-03-15 23:12:00,
2014-03-15 17:26:00,34.0,33.0,30.08,North,352,19.0,25.0,97,0.03,,,0.06,weatherlink.com 1.10,2014-03-15 23:26:00,
2014-03-15 17:41:00,34.4,34.0,30.09,NNW,333,21.0,23.0,97,0.02,,,0.06,weatherlink.com 1.10,2014-03-15 23:41:00,
2014-03-15 17:56:00,34.5,34.0,30.09,North,351,22.0,25.0,97,0.03,,,0.07,weatherlink.com 1.10,2014-03-15 23:56:00,
2014-03-15 18:11:00,34.6,34.0,30.10,NNW,335,26.0,28.0,97,0.02,,,0.07,weatherlink.com 1.10,2014-03-16 00:11:00,
2014-03-15 18:26:00,34.9,34.0,30.11,NNW,347,10.0,23.0,97,0.01,,,0.07,weatherlink.com 1.10,2014-03-16 00:26:00,
2014-03-15 18:41:00,34.7,34.0,30.11,North,349,12.0,24.0,97,0.01,,,0.07,weatherlink.com 1.10,2014-03-16 00:41:00,
2014-03-15 18:56:00,34.6,34.0,30.12,NNW,344,12.0,20.0,97,0.00,,,0.07,weatherlink.com 1.10,2014-03-16 00:56:00,
2014-03-15 19:11:00,34.4,34.0,30.13,North,349,15.0,19.0,97,0.00,,,0.07,weatherlink.com 1.10,2014-03-16 01:11:00,
2014-03-15 19:26:00,34.2,34.0,30.14,NNW,327,18.0,26.0,97,0.00,,,0.07,weatherlink.com 1.10,2014-03-16 01:26:00,
2014-03-15 19:41:00,34.3,34.0,30.14,North,355,18.0,28.0,97,0.00,,,0.07,weatherlink.com 1.10,2014-03-16 01:41:00,
2014-03-15 19:56:00,34.8,34.0,30.15,NNW,340,18.0,24.0,97,0.00,,,0.07,weatherlink.com 1.10,2014-03-16 01:56:00,
2014-03-15 20:11:00,35.6,33.0,30.16,NNW,340,19.0,22.0,91,0.00,,,0.07,weatherlink.com 1.10,2014-03-16 02:11:00,
2014-03-15 20:26:00,35.7,32.0,30.17,North,352,25.0,26.0,85,0.00,,,0.07,weatherlink.com 1.10,2014-03-16 02:26:00,
2014-03-15 20:41:00,35.6,32.0,30.18,North,8,25.0,27.0,85,0.00,,,0.07,weatherlink.com 1.10,2014-03-16 02:41:00,
2014-03-15 20:56:00,35.1,31.0,30.19,NNE,13,13.0,25.0,86,0.00,,,0.07,weatherlink.com 1.10,2014-03-16 02:56:00,
2014-03-15 21:11:00,33.7,31.0,30.20,NNE,20,19.0,25.0,91,0.00,,,0.07,weatherlink.com 1.10,2014-03-16 03:11:00,
2014-03-15 21:26:00,33.2,31.0,30.21,NE,42,13.0,20.0,93,0.00,,,0.07,weatherlink.com 1.10,2014-03-16 03:26:00,
2014-03-15 21:42:00,33.0,32.0,30.22,North,6,12.0,14.0,94,0.00,,,0.07,weatherlink.com 1.10,2014-03-16 03:42:00,
2014-03-15 21:57:00,32.8,31.0,30.21,NE,35,16.0,21.0,94,0.00,,,0.07,weatherlink.com 1.10,2014-03-16 03:57:00,
2014-03-15 22:12:00,32.3,30.0,30.21,NE,41,19.0,22.0,92,0.00,,,0.07,weatherlink.com 1.10,2014-03-16 04:12:00,
2014-03-15 22:27:00,31.7,30.0,30.22,NE,46,17.0,19.0,93,0.00,,,0.07,weatherlink.com 1.10,2014-03-16 04:27:00,
2014-03-15 22:42:00,31.4,30.0,30.22,NNE,13,9.0,19.0,93,0.00,,,0.07,weatherlink.com 1.10,2014-03-16 04:42:00,
2014-03-15 22:57:00,31.0,30.0,30.22,NE,44,12.0,21.0,94,0.00,,,0.07,weatherlink.com 1.10,2014-03-16 04:57:00,
2014-03-15 23:12:00,30.6,29.0,30.24,NNE,18,8.0,15.0,94,0.00,,,0.07,weatherlink.com 1.10,2014-03-16 05:12:00,
2014-03-15 23:27:00,30.3,29.0,30.24,NNE,30,12.0,15.0,94,0.00,,,0.07,weatherlink.com 1.10,2014-03-16 05:27:00,
2014-03-15 23:42:00,30.1,29.0,30.24,North,350,9.0,13.0,94,0.00,,,0.07,weatherlink.com 1.10,2014-03-16 05:42:00,
2014-03-15 23:57:00,30.1,29.0,30.24,North,9,7.0,13.0,94,0.00,,,0.07,weatherlink.com 1.10,2014-03-16 05:57:00,